Lid_Strength_Index
15 15 15 15 14 15 15 16 16 17 17 17 17 17 17 17 17 18 18 18 18 18 18 18 18 17 17 17 16 16 16 16 18 17 15 14 15 14 14 13 12 12 12
14 15 15 15 16 16 17 17 17 18 18 18 18 18 18 18 18 19 19 19 19 19 18 18 18 16 17 17 16 16 16 16 17 18 17 16 16 15 15 15 13 12 12
15 15 16 16 17 17 18 18 18 18 18 19 19 19 19 18 19 19 19 18 18 18 17 17 17 17 17 17 17 17 17 16 16 17 18 16 15 15 15 15 15 14 12
15 16 16 17 17 18 18 18 18 19 19 20 19 19 18 19 18 18 17 17 17 17 16 16 16 16 16 16 16 16 15 16 15 16 16 16 16 14 14 15 16 14 15
15 16 17 17 17 18 18 18 19 19 19 19 19 19 19 19 18 17 17 17 17 17 16 16 15 15 14 14 14 14 14 15 15 16 16 16 16 16 15 14 15 14 14
16 17 17 18 18 18 18 19 19 19 19 19 19 19 19 18 16 15 15 16 16 16 17 16 15 15 14 12 12 12 12 14 15 16 16 16 14 14 13 14 14 15 16
16 16 17 18 18 19 19 19 19 20 19 20 20 19 19 18 16 15 14 15 16 16 16 15 14 14 14 14 13 11 11 10 10 12 14 14 14 13 13 14 14 14 14
17 17 18 18 19 19 19 19 19 19 20 20 19 19 19 18 15 15 14 15 15 15 15 14 14 14 13 12 12 12 12 12 11 11 11 11 11 11 12 12 12 12 12
17 18 18 18 19 20 20 19 20 20 20 20 18 20 20 19 15 14 14 15 15 14 13 13 13 13 11 9 10 11 11 11 9 8 8 7 7 7 8 10 12 13 14
16 16 17 18 18 19 19 20 20 21 20 18 18 20 19 22 16 14 13 14 17 14 13 12 10 11 9 9 11 12 14 13 12 11 12 12 11 11 9 11 12 14 14
15 17 18 18 19 20 21 21 22 23 20 23 21 20 20 18 18 13 11 12 14 14 13 12 11 10 9 9 8 12 12 10 13 15 15 14 14 13 13 12 11 12 14
17 18 19 21 19 20 23 23 24 25 26 26 24 22 18 16 14 12 10 10 10 13 12 11 12 9 9 8 9 9 9 11 16 16 17 17 16 15 14 13 12 12 11
18 20 21 22 21 21 24 23 24 24 23 22 20 21 19 16 16 11 10 10 9 10 11 9 9 9 9 10 10 10 12 16 16 17 17 17 15 14 13 13 12 11 11
20 21 22 22 22 22 20 20 21 21 21 20 20 19 19 16 15 15 15 13 10 10 9 13 11 10 10 11 14 13 15 15 16 17 16 15 14 14 14 13 14 13 13
20 20 21 21 21 21 20 20 19 20 19 22 21 21 21 21 16 11 10 13 13 10 10 21 20 18 15 16 16 16 15 16 16 16 16 16 15 14 14 13 13 14 15
20 20 20 19 20 19 19 20 13 13 12 11 11 14 15 10 9 8 8 7 7 7 15 23 20 18 16 17 17 17 16 16 16 15 15 15 16 15 14 14 14 15 16
18 19 18 18 19 20 20 20 21 17 10 10 9 9 9 9 8 8 8 8 7 10 22 24 20 18 17 17 17 17 17 16 15 15 15 16 15 14 15 15 15 15 16
20 19 18 18 19 20 20 19 20 22 22 21 14 11 10 9 9 9 9 9 20 20 25 23 20 21 17 18 18 18 17 17 16 16 16 15 14 15 15 16 16 16 15
20 20 20 20 21 20 20 20 20 21 24 25 23 17 15 11 10 10 9 18 25 26 25 22 22 20 17 18 19 18 18 18 17 17 16 15 14 15 15 16 15 15 15
21 21 20 20 21 21 21 20 20 22 23 24 23 21 21 22 25 22 19 21 22 21 22 22 23 22 19 20 19 19 18 18 18 17 16 15 14 15 15 15 15 16 15
20 20 20 21 21 22 20 20 20 21 21 21 20 20 14 18 19 19 18 21 19 20 21 22 23 23 21 21 21 20 19 19 18 17 16 16 15 16 15 15 15 15 15
21 22 23 24 22 21 21 20 20 21 21 22 22 21 13 15 20 21 20 18 19 19 20 22 21 20 19 22 24 21 20 20 19 18 17 17 15 16 16 16 16 16 16
21 22 24 24 22 20 23 25 26 26 26 26 25 24 23 19 19 18 18 19 20 20 20 22 22 20 19 23 25 23 21 21 20 19 18 18 16 16 17 17 16 16 16
23 23 22 24 25 27 28 29 28 25 25 25 27 25 21 20 19 19 19 19 20 21 21 22 23 22 20 23 24 24 24 22 21 20 19 18 16 15 18 18 18 17 16
25 25 25 26 29 28 29 28 26 28 27 25 24 23 21 20 19 20 19 20 20 21 21 22 24 22 24 26 25 26 23 22 22 20 19 18 15 16 19 20 20 19 18
26 25 25 27 29 30 29 29 29 28 28 26 24 23 23 21 21 20 20 20 21 22 22 23 25 25 26 26 26 24 21 18 18 18 17 15 15 15 19 21 23 24 21